Tracking 18876 objects as of 15-Dec-2017
HD Live streaming from Space Station
objects crossing your sky now

PEGASUS R/B

Track PEGASUS R/B now!
10-day predictions


NORAD ID: 41892
Int'l Code: 2016-078J
Perigee: 519.7 km
Apogee: 536.7 km
Inclination: 35.0 °
Period: 95.1 minutes
Semi major axis: 6899 km
RCS: Unknown
Launch date: December 15, 2016
Source: United States (US)
Launch site: Pegasus launched from Eastern Range Air Space (ERAS)

Note: This is a ROCKET BODY
aabbcc
Your satellite tracking list
Your tracking list is empty




NASA's NSSDC Master Catalog

Two Line Element Set (TLE):
1 41892U 16078J   17348.43935253 +.00000424 +00000-0 +23906-4 0  9997
2 41892 034.9546 342.8408 0012316 140.8439 219.3165 15.14963971055203
Source of the keplerian elements: AFSPC